Plymouth, New York
Current Conditions -  °F | °C
As of 8:55 AM on Saturday 20 Dec 2014 (Local Time) from KN03 Reporting Station
Overcast Overcast  
Wind Chill: 28°   Ceiling: 2000
Heat Index: 28°   Visibility: 10mi
Dew Point: 25°   Wind: 0mph
Humidity: 86%   Direction: NA
Pressure: 30.25"   Gusts: NA
Location:  42.62°N, 75.6°W
Report Text: KN03 201355Z AUTO 00000KT 10SM OVC020 M02/M04 A3025 RMK AO2
Loading
Personal Weather Stations






























Interactive Weather Map New forecast layout! Learn more

10-Day Weather Forecast

Advertisements
Track Severe Weather on mobile